Weather History for KHOP - December, 2012

Change the Weather History Date:

Wednesday, December 5, 2012

  Actual Average Record
Temperature  
Mean Temperature 49 °F -  
Max Temperature 59 °F 50 °F 73 °F (1998)
Min Temperature 39 °F 33 °F 15 °F (2002)
Degree Days  
Heating Degree Days 16    
Moisture  
Dew Point 39 °F    
Average Humidity 72    
Maximum Humidity 100    
Minimum Humidity 39    
Precipitation  
Precipitation 0.00 in - - ()
Sea Level Pressure  
Sea Level Pressure 30.26 in    
Wind  
Wind Speed 4 mph (NE)    
Max Wind Speed 12 mph    
Max Gust Speed -    
Visibility 10 miles    
Events      
Averages and records for this station are not official NWS values.
T = Trace of Precipitation, MM = Missing Value Source: NWS Daily Summary

Daily Weather History Graph

Daily Weather History Graph

Search for Another Location

Airport or City:

Trip Planner

Search our weather history database for the weather conditions in past years. The results will help you decide how hot, cold, wet, or windy it might be!

Date:

Astronomy

Dec. 05, 2012 Rise Set
Actual Time 6:47 AM CST 4:33 PM CST
Civil Twilight 6:19 AM CST 5:02 PM CST
Nautical Twilight 5:47 AM CST 5:34 PM CST
Astronomical Twilight 5:15 AM CST 6:05 PM CST
Moon 11:14 PM CST (12/5) 11:18 AM CST (12/5)
Length of Visible Light 10h 43m
Length of Day
9h 46m
Waning Gibbous, 59% of the Moon is Illuminated
Dec 5
Waning Gibbous
Dec 6
Last Quarter
Dec 13
New
Dec 19
First Quarter
Dec 28
Full

Hourly Weather History & Observations

Time (CST) Temp. Windchill Dew Point Humidity Pressure Visibility Wind Dir Wind Speed Gust Speed Precip Events Conditions
12:55 AM 47.8 °F - 44.2 °F 87% 30.27 in 10.0 mi Calm Calm - N/A   Scattered Clouds
1:55 AM 45.5 °F - 44.4 °F 96% 30.28 in 10.0 mi Calm Calm - N/A   Mostly Cloudy
2:55 AM 45.5 °F 44.2 °F 44.8 °F 97% 30.28 in 10.0 mi North 3.5 mph - N/A   Mostly Cloudy
3:55 AM 43.2 °F 41.5 °F 43.0 °F 99% 30.29 in 10.0 mi NNE 3.5 mph - N/A   Clear
4:55 AM 42.4 °F 40.7 °F 42.3 °F 99% 30.31 in 10.0 mi NNE 3.5 mph - N/A   Clear
5:55 AM 42.6 °F 40.9 °F 42.4 °F 99% 30.32 in 10.0 mi Variable 3.5 mph - N/A   Partly Cloudy
6:55 AM 39.6 °F - 39.6 °F 100% 30.33 in 5.0 mi Calm Calm - N/A   Clear
8:55 AM 48.9 °F - 45.9 °F 89% 30.35 in 10.0 mi NE 9.2 mph - N/A   Clear
9:55 AM 53.1 °F - 44.2 °F 72% 30.35 in 10.0 mi NE 6.9 mph - N/A   Clear
10:55 AM 55.9 °F - 42.1 °F 60% 30.32 in 10.0 mi NE 9.2 mph - N/A   Clear
11:55 AM 57.9 °F - 39.2 °F 50% 30.29 in 10.0 mi ENE 10.4 mph - N/A   Clear
12:55 PM 59.5 °F - 34.5 °F 39% 30.27 in 10.0 mi NE 10.4 mph - N/A   Clear
1:55 PM 59.7 °F - 35.2 °F 40% 30.25 in 10.0 mi ENE 8.1 mph - N/A   Clear
2:55 PM 59.5 °F - 34.5 °F 39% 30.24 in 10.0 mi NE 11.5 mph - N/A   Clear
3:55 PM 55.6 °F - 37.6 °F 51% 30.24 in 10.0 mi ENE 6.9 mph - N/A   Clear
4:55 PM 50.4 °F - 36.3 °F 59% 30.24 in 10.0 mi NE 5.8 mph - N/A   Clear
5:55 PM 47.5 °F - 35.8 °F 64% 30.23 in 10.0 mi NNE 3.5 mph - N/A   Clear
6:55 PM 44.4 °F 41.2 °F 34.7 °F 69% 30.22 in 10.0 mi NE 5.8 mph - N/A   Clear
7:55 PM 45.0 °F 41.2 °F 33.8 °F 65% 30.22 in 10.0 mi NE 6.9 mph - N/A   Clear
8:55 PM 43.9 °F 39.9 °F 34.5 °F 70% 30.21 in 10.0 mi NE 6.9 mph - N/A   Clear
9:55 PM 43.2 °F 39.7 °F 34.0 °F 70% 30.19 in 10.0 mi NE 5.8 mph - N/A   Clear
10:55 PM 42.6 °F 39.0 °F 33.8 °F 71% 30.18 in 10.0 mi ENE 5.8 mph - N/A   Clear
11:55 PM 41.5 °F 37.1 °F 34.0 °F 75% 30.16 in 10.0 mi ENE 6.9 mph - N/A   Clear